Regional Weather Roundup
Issued by NWS

Home | Current Version | Previous Version | Graphics & Text | Print | Product List | Glossary On
Versions: 1 2 3 4 5 6 7 8 9 10 11 12 13 14 15 16 17 18 19 20 21 22 23 24 25 26 27 28 29 30 31 32 33 34 35 36 37 38 39 40 41 42 43 44 45 46 47 48 49 50
000
ASUS43 KOAX 030710
RWRNE

WEATHER ROUNDUP FOR NEBRASKA
NATIONAL WEATHER SERVICE OMAHA NE
100 AM CST SAT DEC 03 2016

NOTES: SATELLITE DATA IS BEING USED TO AUGMENT CLOUD COVER ABOVE
       12000 FEET.
       "FAIR" INDICATES FEW OR NO CLOUDS BELOW 12,000 FEET WITH NO
       SIGNIFICANT WEATHER AND/OR OBSTRUCTIONS TO VISIBILITY.

  * THESE STATIONS DO NOT REPORT WEATHER SUCH AS RAIN...SNOW OR FOG.

NEZ001>004-019>022-054>056-030800-
NEBRASKA PANHANDLE

CITY           SKY/WX    TMP DP  RH WIND       PRES   REMARKS
ALLIANCE       MOCLDY    15  12  88 S8        30.15F WCI   4
CHADRON        CLOUDY    16  12  84 CALM      30.14F
KIMBALL        CLOUDY    23  21  93 S7        30.14F WCI  14
SIDNEY         PTCLDY    18  14  84 S7        30.17F WCI   9
$$

NEZ057>060-069>072-079>082-030800-
SOUTHWEST NEBRASKA

CITY           SKY/WX    TMP DP  RH WIND       PRES   REMARKS
IMPERIAL       CLOUDY    28  22  78 S8        30.24F WCI  20
LEXINGTON      CLOUDY    28  25  86 S3        30.28F
MCCOOK         CLOUDY    30  23  75 S3        30.28F
OGALLALA       CLOUDY    26  23  87 CALM      30.22S
$$

NEZ005>010-023>029-035>040-094-030800-
NORTH CENTRAL NEBRASKA

CITY           SKY/WX    TMP DP  RH WIND       PRES   REMARKS
AINSWORTH      CLEAR     20  18  94 S6        30.21F WCI  12
BROKEN BOW     MOCLDY    20  18  92 CALM      30.26S
O`NEILL        CLEAR     26  25  94 S8        30.26S WCI  18
THEDFORD       PTCLDY    27  22  80 S6        30.22S WCI  21
$$

NEZ041-046>049-061>064-073>077-083>087-030800-
SOUTH CENTRAL NEBRASKA

CITY           SKY/WX    TMP DP  RH WIND       PRES   REMARKS
AURORA         CLEAR     28  26  91 S8        30.32F WCI  20
HASTINGS       CLOUDY    27  23  85 S5        30.32F WCI  22
HEBRON         CLOUDY    26  23  89 CALM      30.34F
HOLDREGE       CLOUDY    29  25  82 S6        30.29F WCI  23
KEARNEY *      MOCLDY    27  19  74 SW5       30.31S WCI  21
YORK           PTCLDY    27  25  93 S6        30.33F WCI  20
$$

NEZ011>018-030>034-042>045-030800-
NORTHEAST NEBRASKA

CITY           SKY/WX    TMP DP  RH WIND       PRES   REMARKS
NORFOLK        CLEAR     24  21  88 S8        30.31R WCI  15
ALBION         PTCLDY    23  21  92 CALM      30.31R
BLAIR          CLEAR     26  24  91 S3        30.33R
FREMONT        CLEAR     25  24  99 CALM      30.35R
WAYNE          PTCLDY    20  19  93 CALM      30.32R
$$

NEZ050>053-065>068-078-088>093-030800-
SOUTHEAST NEBRASKA

CITY           SKY/WX    TMP DP  RH WIND       PRES   REMARKS
LINCOLN        PTCLDY    26  23  88 CALM      30.37S
OMAHA EPPLEY   MOCLDY    25  21  85 SE7       30.37R WCI  17
BEATRICE       CLOUDY    27  25  92 CALM      30.34F
NEBRASKA CITY  CLOUDY    29  25  85 SW3       30.35F
PLATTSMOUTH    PTCLDY    29  24  82 S6        30.36S WCI  23
$$

NEZ044-045-051>053-067-030800-
OMAHA AREA

CITY           SKY/WX    TMP DP  RH WIND       PRES   REMARKS
OMAHA EPPLEY   MOCLDY    25  21  85 SE7       30.37R WCI  17
BLAIR          CLEAR     26  24  91 S3        30.33R
FREMONT        CLEAR     25  24  99 CALM      30.35R
MILLARD        PTCLDY    27  25  91 CALM      30.37R
OFFUTT AFB     PTCLDY    23  23 100 S2        30.36R
PLATTSMOUTH    PTCLDY    29  24  82 S6        30.36S WCI  23
WAHOO          FAIR      23  21  92 SW5       30.36R WCI  17
$$



USA.gov is the U.S. government's official web portal to all federal, state and local government web resources and services.